SAV18AZ FJDG-FSIA

Flight info

Callsign SAV18AZ
Flight time N/A
Altitude 34000
Route NKW UR212 PERRY DCT DULMA DULMA1E
Aircraft A320/M-SDE3FGHIRWY/LB1

Departure

Time N/A
Airport Naval Support Facility Diego Garcia (FJDG)

Arrival

Time 2026-04-24 20:47
Airport Seychelles International Airport (FSIA)
Time Latitude Longitude Altitude Speed Heading
2026-04-24 19:45 -6.19762 61.69621 35884 ft 436 kts 277°
2026-04-24 19:46 -6.19404 61.66552 35886 ft 436 kts 277°
2026-04-24 19:46 -6.18713 61.60490 35880 ft 436 kts 276°
2026-04-24 19:47 -6.18055 61.54437 35885 ft 436 kts 277°
2026-04-24 19:47 -6.17336 61.48377 35882 ft 436 kts 277°
2026-04-24 19:48 -6.16647 61.42323 35887 ft 436 kts 277°
2026-04-24 19:48 -6.15567 61.33236 35887 ft 436 kts 277°
2026-04-24 19:49 -6.14157 61.21109 35881 ft 437 kts 277°
2026-04-24 19:50 -6.12757 61.08971 35885 ft 437 kts 277°
2026-04-24 19:51 -6.11698 60.99874 35880 ft 437 kts 277°
2026-04-24 19:52 -6.10633 60.90774 35885 ft 437 kts 277°
2026-04-24 19:52 -6.09931 60.84716 35890 ft 437 kts 277°
2026-04-24 19:53 -6.09226 60.78641 35888 ft 437 kts 277°
2026-04-24 19:54 -6.08163 60.69548 35885 ft 437 kts 277°
2026-04-24 19:54 -6.07456 60.63478 35885 ft 437 kts 277°
2026-04-24 19:55 -6.06868 60.58425 35887 ft 437 kts 277°
2026-04-24 19:55 -6.06034 60.51341 35878 ft 437 kts 277°
2026-04-24 19:56 -6.05317 60.45269 35880 ft 437 kts 277°
2026-04-24 19:56 -6.04603 60.39199 35879 ft 437 kts 277°
2026-04-24 19:57 -6.03892 60.33126 35880 ft 437 kts 277°
2026-04-24 19:57 -6.03181 60.27063 35888 ft 437 kts 277°
2026-04-24 19:58 -6.02474 60.20995 35885 ft 437 kts 277°
2026-04-24 19:58 -6.01759 60.14912 35883 ft 437 kts 278°
2026-04-24 19:59 -6.01036 60.08837 35887 ft 437 kts 278°
2026-04-24 19:59 -6.00314 60.02773 35888 ft 437 kts 278°
2026-04-24 20:00 -5.98808 59.96906 35880 ft 435 kts 291°
2026-04-24 20:00 -5.96623 59.91232 35878 ft 435 kts 291°
2026-04-24 20:01 -5.94437 59.85562 35879 ft 435 kts 292°
2026-04-24 20:01 -5.92242 59.79861 35879 ft 435 kts 291°
2026-04-24 20:02 -5.90427 59.75136 35879 ft 435 kts 292°
2026-04-24 20:02 -5.87880 59.68502 35872 ft 435 kts 292°
2026-04-24 20:03 -5.85691 59.62829 35876 ft 435 kts 292°
2026-04-24 20:03 -5.83506 59.57163 35879 ft 436 kts 292°
2026-04-24 20:04 -5.81316 59.51486 35884 ft 436 kts 292°
2026-04-24 20:04 -5.79135 59.45804 35881 ft 436 kts 292°
2026-04-24 20:05 -5.76945 59.40125 35881 ft 436 kts 292°
2026-04-24 20:05 -5.74754 59.34457 35876 ft 436 kts 292°
2026-04-24 20:06 -5.72568 59.28777 35886 ft 435 kts 292°
2026-04-24 20:06 -5.70383 59.23108 35880 ft 436 kts 292°
2026-04-24 20:07 -5.68562 59.18387 35880 ft 436 kts 292°
2026-04-24 20:07 -5.66002 59.11769 35878 ft 435 kts 292°
2026-04-24 20:08 -5.63804 59.06088 35883 ft 435 kts 292°
2026-04-24 20:08 -5.61614 59.00421 35886 ft 436 kts 292°
2026-04-24 20:09 -5.59422 58.94755 35881 ft 435 kts 292°
2026-04-24 20:09 -5.57232 58.89081 35876 ft 435 kts 292°
2026-04-24 20:10 -5.55030 58.83407 35876 ft 436 kts 292°
2026-04-24 20:10 -5.52839 58.77743 35874 ft 436 kts 292°
2026-04-24 20:11 -5.50651 58.72068 35875 ft 436 kts 292°
2026-04-24 20:11 -5.48451 58.66402 35882 ft 435 kts 292°
2026-04-24 20:12 -5.46253 58.60730 35877 ft 435 kts 292°
2026-04-24 20:12 -5.44412 58.55982 35874 ft 435 kts 292°
2026-04-24 20:13 -5.41852 58.49384 35872 ft 436 kts 292°
2026-04-24 20:13 -5.39654 58.43716 35878 ft 435 kts 292°
2026-04-24 20:14 -5.37458 58.38050 35878 ft 435 kts 292°
2026-04-24 20:14 -5.35265 58.32389 35875 ft 435 kts 292°
2026-04-24 20:15 -5.33061 58.26729 35877 ft 435 kts 292°
2026-04-24 20:15 -5.31238 58.22023 35871 ft 435 kts 292°
2026-04-24 20:16 -5.29032 58.16328 35873 ft 435 kts 292°
2026-04-24 20:16 -5.26826 58.10657 35866 ft 436 kts 292°
2026-04-24 20:17 -5.24629 58.04997 35864 ft 435 kts 292°
2026-04-24 20:17 -5.21322 57.96506 35866 ft 435 kts 292°
2026-04-24 20:18 -5.19120 57.90848 35873 ft 436 kts 292°
2026-04-24 20:18 -5.16925 57.85181 35868 ft 436 kts 292°
2026-04-24 20:19 -5.14721 57.79505 35871 ft 436 kts 292°
2026-04-24 20:19 -5.12513 57.73846 35866 ft 436 kts 292°
2026-04-24 20:20 -5.10309 57.68179 35865 ft 436 kts 292°
2026-04-24 20:20 -5.08105 57.62522 35866 ft 436 kts 292°
2026-04-24 20:21 -5.05898 57.56852 35868 ft 436 kts 292°
2026-04-24 20:21 -5.03688 57.51185 35859 ft 436 kts 292°
2026-04-24 20:22 -5.01479 57.45524 35865 ft 436 kts 292°
2026-04-24 20:22 -4.99265 57.39856 35679 ft 436 kts 292°
2026-04-24 20:23 -4.98166 57.37040 35370 ft 431 kts 292°
2026-04-24 20:23 -4.97079 57.34240 34907 ft 429 kts 292°
2026-04-24 20:23 -4.96002 57.31464 34445 ft 428 kts 292°
2026-04-24 20:23 -4.94918 57.28679 33984 ft 426 kts 292°
2026-04-24 20:24 -4.93843 57.25925 33476 ft 424 kts 292°
2026-04-24 20:24 -4.92771 57.23179 33018 ft 421 kts 292°
2026-04-24 20:24 -4.91707 57.20456 32552 ft 418 kts 292°
2026-04-24 20:24 -4.90648 57.17743 32093 ft 416 kts 292°
2026-04-24 20:25 -4.89600 57.15061 31639 ft 413 kts 292°
2026-04-24 20:25 -4.88550 57.12375 31183 ft 411 kts 292°
2026-04-24 20:25 -4.87511 57.09714 30746 ft 409 kts 291°
2026-04-24 20:25 -4.86475 57.07064 30305 ft 407 kts 292°
2026-04-24 20:26 -4.85445 57.04427 29870 ft 406 kts 291°
2026-04-24 20:26 -4.84416 57.01791 29398 ft 403 kts 291°
2026-04-24 20:26 -4.83395 56.99178 28987 ft 400 kts 292°
2026-04-24 20:26 -4.82387 56.96599 28586 ft 397 kts 292°
2026-04-24 20:27 -4.81384 56.94030 28174 ft 395 kts 292°
2026-04-24 20:27 -4.80386 56.91473 27776 ft 393 kts 292°
2026-04-24 20:27 -4.79390 56.88914 27371 ft 392 kts 292°
2026-04-24 20:27 -4.78402 56.86377 26969 ft 390 kts 292°
2026-04-24 20:28 -4.77416 56.83848 26571 ft 389 kts 292°
2026-04-24 20:28 -4.76428 56.81322 26169 ft 389 kts 292°
2026-04-24 20:28 -4.75437 56.78794 25747 ft 388 kts 292°
2026-04-24 20:28 -4.74451 56.76283 25340 ft 388 kts 292°
2026-04-24 20:29 -4.73782 56.74580 25054 ft 388 kts 292°
2026-04-24 20:29 -4.72477 56.71248 24475 ft 388 kts 292°
2026-04-24 20:29 -4.71490 56.68728 24046 ft 388 kts 292°
2026-04-24 20:29 -4.70503 56.66204 23601 ft 389 kts 292°
2026-04-24 20:30 -4.69519 56.63687 23109 ft 389 kts 292°
2026-04-24 20:30 -4.68533 56.61164 22652 ft 388 kts 292°
2026-04-24 20:30 -4.67550 56.58653 22187 ft 386 kts 292°
2026-04-24 20:30 -4.66569 56.56145 21741 ft 384 kts 292°
2026-04-24 20:31 -4.65594 56.53651 21292 ft 382 kts 292°
2026-04-24 20:31 -4.64627 56.51177 20844 ft 381 kts 292°
2026-04-24 20:31 -4.63663 56.48709 20395 ft 379 kts 292°
2026-04-24 20:31 -4.62702 56.46253 19952 ft 377 kts 292°
2026-04-24 20:32 -4.61747 56.43816 19500 ft 376 kts 292°
2026-04-24 20:32 -4.60794 56.41381 19059 ft 374 kts 292°
2026-04-24 20:32 -4.59847 56.38962 18649 ft 371 kts 292°
2026-04-24 20:32 -4.58919 56.36590 18180 ft 360 kts 292°
2026-04-24 20:33 -4.58012 56.34280 17728 ft 353 kts 292°
2026-04-24 20:33 -4.57115 56.31996 17293 ft 351 kts 292°
2026-04-24 20:33 -4.56219 56.29717 16867 ft 349 kts 292°
2026-04-24 20:33 -4.55332 56.27459 16456 ft 348 kts 292°
2026-04-24 20:34 -4.54444 56.25198 16046 ft 346 kts 292°
2026-04-24 20:34 -4.53565 56.22960 15641 ft 345 kts 292°
2026-04-24 20:34 -4.52689 56.20733 15221 ft 344 kts 292°
2026-04-24 20:34 -4.51813 56.18504 14819 ft 342 kts 292°
2026-04-24 20:35 -4.50945 56.16290 14412 ft 341 kts 291°
2026-04-24 20:35 -4.50078 56.14074 14007 ft 340 kts 291°
2026-04-24 20:35 -4.49215 56.11869 13593 ft 339 kts 291°
2026-04-24 20:35 -4.48355 56.09675 13162 ft 338 kts 291°
2026-04-24 20:36 -4.47501 56.07497 12755 ft 335 kts 292°
2026-04-24 20:36 -4.46647 56.05324 12358 ft 333 kts 292°
2026-04-24 20:36 -4.45802 56.03172 11963 ft 331 kts 292°
2026-04-24 20:36 -4.44964 56.01035 11559 ft 329 kts 292°
2026-04-24 20:37 -4.44211 55.98885 11163 ft 328 kts 282°
2026-04-24 20:37 -4.44153 55.96613 10767 ft 327 kts 260°
2026-04-24 20:37 -4.44960 55.94468 10358 ft 328 kts 238°
2026-04-24 20:37 -4.46486 55.92808 10156 ft 321 kts 221°
2026-04-24 20:38 -4.48127 55.91388 10035 ft 311 kts 222°
2026-04-24 20:38 -4.49764 55.89956 9768 ft 307 kts 222°
2026-04-24 20:38 -4.51364 55.88553 9438 ft 305 kts 222°
2026-04-24 20:38 -4.52948 55.87160 9110 ft 302 kts 222°
2026-04-24 20:39 -4.54527 55.85777 8780 ft 300 kts 222°
2026-04-24 20:39 -4.56091 55.84408 8326 ft 296 kts 222°
2026-04-24 20:39 -4.57629 55.83059 7741 ft 293 kts 222°
2026-04-24 20:39 -4.59157 55.81718 7180 ft 290 kts 222°
2026-04-24 20:40 -4.60667 55.80392 6685 ft 285 kts 222°
2026-04-24 20:40 -4.62140 55.79101 6308 ft 278 kts 222°
2026-04-24 20:40 -4.63596 55.77823 5929 ft 280 kts 222°
2026-04-24 20:40 -4.65068 55.76532 5566 ft 280 kts 221°
2026-04-24 20:41 -4.66509 55.75268 5210 ft 271 kts 222°
2026-04-24 20:41 -4.67905 55.74041 4874 ft 262 kts 222°
2026-04-24 20:41 -4.69252 55.72862 4542 ft 252 kts 220°
2026-04-24 20:41 -4.70655 55.71875 4256 ft 241 kts 214°
2026-04-24 20:42 -4.72011 55.70955 4009 ft 229 kts 215°
2026-04-24 20:42 -4.73299 55.70076 3765 ft 218 kts 215°
2026-04-24 20:42 -4.74525 55.69237 3531 ft 209 kts 215°
2026-04-24 20:42 -4.75719 55.68418 3322 ft 207 kts 215°
2026-04-24 20:43 -4.76723 55.67422 3092 ft 203 kts 245°
2026-04-24 20:43 -4.76927 55.66049 2870 ft 203 kts 283°
2026-04-24 20:43 -4.76283 55.64797 2705 ft 205 kts 304°
2026-04-24 20:43 -4.75450 55.63628 2456 ft 205 kts 304°
2026-04-24 20:44 -4.74642 55.62485 2232 ft 197 kts 304°
2026-04-24 20:44 -4.73874 55.61390 1957 ft 187 kts 304°
2026-04-24 20:44 -4.73149 55.60354 1731 ft 177 kts 304°
2026-04-24 20:44 -4.72462 55.59372 1495 ft 166 kts 304°
2026-04-24 20:45 -4.71825 55.58462 1325 ft 154 kts 304°
2026-04-24 20:45 -4.71216 55.57590 1119 ft 151 kts 304°
2026-04-24 20:45 -4.70617 55.56735 926 ft 149 kts 304°
2026-04-24 20:45 -4.70023 55.55886 732 ft 148 kts 304°
2026-04-24 20:46 -4.69433 55.55043 538 ft 147 kts 304°
2026-04-24 20:46 -4.68845 55.54203 337 ft 147 kts 304°
2026-04-24 20:46 -4.68257 55.53370 122 ft 146 kts 304°
2026-04-24 20:46 -4.67686 55.52552 1 ft 132 kts 305°
2026-04-24 20:47 -4.67247 55.51928 4 ft 85 kts 303°
2026-04-24 20:47 -4.67004 55.51575 2 ft 46 kts 306°
2026-04-24 20:47 -4.66903 55.51437 2 ft 30 kts 308°
2026-04-24 20:47 -4.66745 55.51213 5 ft 29 kts 304°
2026-04-24 20:48 -4.66689 55.51093 5 ft 15 kts 250°
2026-04-24 20:48 -4.66776 55.51050 4 ft 12 kts 194°
2026-04-24 20:48 -4.66819 55.51016 5 ft 12 kts 234°
2026-04-24 20:48 -4.66864 55.50938 6 ft 13 kts 229°
2026-04-24 20:49 -4.66889 55.50916 6 ft 5 kts 217°
2026-04-24 20:49 -4.66902 55.50872 6 ft 9 kts 291°
2026-04-24 20:49 -4.66859 55.50821 8 ft 10 kts 304°
2026-04-24 20:49 -4.66853 55.50813 8 ft 0 kts 306°